Overview Statistics Trail Chart Weather Telemetry Raw packets
 

This is the latest recevied weather packets stored in our database for station/object WW6Q. If no packets are shown the sender has not sent any weather packets the latest 10 day(s).

<< 21 22 23 24 25 26 27 >>
Time Temp. Humidity Pressure Rain* Wind** Luminosity Snow
1788481487 24.44° C 76% 1015 hPa 0 mm - 0 W/m² -
1788481185 24.44° C 76% 1014.6 hPa 0 mm - 1 W/m² -
1788480881 24.44° C 76% 1015 hPa 0 mm - 2 W/m² -
1788480581 24.44° C 75% 1014.7 hPa 0 mm - 4 W/m² -
1788480280 25° C 74% 1014.9 hPa 0 mm - 6 W/m² -
1788479976 25° C 74% 1014.7 hPa 0 mm - 8 W/m² -
1788479672 25° C 74% 1014.9 hPa 0 mm - 13 W/m² -
1788479372 25° C 75% 1014.6 hPa 0 mm - 20 W/m² -
1788479068 25° C 75% 1014.7 hPa 0 mm - 26 W/m² -
1788478764 25° C 75% 1014.8 hPa 0 mm - 16 W/m² -
1788478460 25° C 74% 1014.5 hPa 0 mm - 18 W/m² -
1788478174 25° C 74% 1014.5 hPa 0 mm - 29 W/m² -
1788477855 25.56° C 74% 1014.6 hPa 0 mm - 31 W/m² -
1788477555 25.56° C 73% 1014.6 hPa 0 mm - 52 W/m² -
1788477249 25.56° C 73% 1014.4 hPa 0 mm - 70 W/m² -
1788476944 25.56° C 73% 1014.3 hPa 0 mm - 69 W/m² -
1788476640 25.56° C 73% 1014.5 hPa 0 mm - 66 W/m² -
1788476336 25.56° C 73% 1014.3 hPa 0 mm - 56 W/m² -
1788476032 25.56° C 72% 1014.4 hPa 0 mm - 46 W/m² -
1788475728 25.56° C 73% 1014.6 hPa 0 mm - 49 W/m² -
1788475424 25.56° C 73% 1014.4 hPa 0 mm - 51 W/m² -
1788475119 25.56° C 73% 1014.3 hPa 0 mm - 54 W/m² -
1788474818 26.11° C 72% 1014.4 hPa 0 mm - 59 W/m² -
1788474513 26.11° C 74% 1014.2 hPa 0 mm - 63 W/m² -
1788474212 26.11° C 73% 1014.4 hPa 0 mm - 76 W/m² -

* Rain latest hour (hover to see other rain measurements)
** Current wind speed in m/s (hover to see current wind gust speed)